Temperature
7 7 7 6 6 6 6 6 6 6 5 5 5 5 5 5 4 4 4 4 4 4 3 3 3 3 2 2 2 2 2 2 2 2 3 3 3 3 3 3 3 3 3
7 6 6 6 6 6 6 5 5 5 5 5 5 5 5 4 4 4 4 4 3 3 3 3 2 2 2 2 2 2 2 2 1 2 2 2 2 2 2 3 3 3 3
6 6 6 6 6 5 5 5 5 5 5 5 4 4 4 4 4 4 3 3 3 3 2 2 2 2 2 2 1 1 1 1 1 1 1 2 2 2 2 2 2 2 3
6 6 6 5 5 5 5 5 5 5 4 4 4 4 4 4 3 3 3 3 3 2 2 2 2 1 1 1 1 1 1 1 1 1 1 1 1 1 1 2 2 2 2
5 5 5 5 5 5 5 4 4 4 4 4 4 4 3 3 3 3 2 2 2 2 2 2 1 1 1 1 1 0 0 0 0 0 0 1 1 1 1 1 1 2 2
5 5 5 5 4 4 4 4 4 4 4 4 3 3 3 3 3 2 2 2 2 2 1 1 1 1 1 0 0 0 0 0 0 0 0 0 1 1 1 1 1 1 1
5 4 4 4 4 4 4 4 4 4 3 3 3 3 3 3 2 2 2 2 1 1 1 1 1 1 0 0 0 0 0 0 -0 -0 -0 0 0 1 0 1 1 1 1
4 4 4 4 4 4 4 4 3 3 3 3 3 2 2 2 2 2 2 1 1 1 1 1 0 0 0 -0 -0 -0 0 0 -0 -0 -0 -0 0 0 0 0 0 0 1
4 3 3 3 3 3 3 3 3 3 3 2 2 2 2 2 2 1 1 1 1 0 0 0 0 -0 -0 -1 -1 -0 -0 -0 -0 -0 -0 0 0 0 0 0 0 0 0
3 3 3 3 3 3 3 2 2 2 2 2 2 2 1 1 1 1 1 0 -0 -0 0 0 0 -0 -0 -1 -1 -1 -1 -1 -0 -0 -0 0 0 -0 -0 -0 -0 -0 0
2 3 3 3 2 2 2 2 2 2 1 1 1 1 1 1 1 1 0 -0 -1 -1 -1 -0 -0 -0 -1 -1 -1 -1 -1 -1 -1 -1 -1 -0 -0 -0 -0 -0 -0 -0 -0
2 2 2 2 2 2 2 1 1 1 1 1 1 1 1 1 1 0 0 -0 -1 -1 -1 -1 -1 -1 -1 -1 -1 -1 -1 -1 -1 -1 -1 -1 -1 -1 -1 -0 -1 -1 -1
2 2 2 1 1 1 1 1 1 0 0 0 -0 -0 0 0 0 -0 -0 -0 -1 -1 -1 -1 -1 -1 -1 -1 -1 -1 -1 -1 -1 -1 -1 -1 -1 -1 -1 -1 -1 -1 -1
1 1 1 1 1 0 0 0 -0 -0 -0 -1 -1 -1 -1 -0 -0 -1 -1 -1 -1 -1 -1 -1 -1 -1 -1 -1 -2 -2 -2 -2 -2 -2 -2 -2 -2 -1 -1 -1 -1 -1 -1
1 0 0 0 -0 -0 -0 -1 -1 -1 -1 -2 -2 -2 -2 -2 -1 -2 -2 -1 -2 -2 -2 -2 -1 -2 -2 -2 -2 -2 -2 -2 -2 -2 -2 -2 -2 -2 -2 -2 -1 -1 -1
-0 -0 -1 -1 -1 -1 -1 -1 -1 -1 -1 -2 -2 -2 -2 -2 -2 -2 -2 -2 -2 -2 -2 -2 -2 -2 -3 -3 -3 -2 -2 -2 -2 -3 -3 -2 -2 -2 -2 -2 -2 -2 -2
-1 -1 -1 -1 -1 -1 -2 -2 -1 -1 -2 -2 -2 -2 -2 -2 -2 -2 -2 -2 -2 -2 -2 -3 -3 -3 -3 -3 -3 -3 -3 -3 -3 -3 -3 -3 -2 -2 -2 -2 -2 -2 -2
-1 -1 -2 -2 -2 -2 -2 -2 -2 -2 -2 -2 -2 -2 -2 -2 -2 -2 -2 -2 -2 -2 -3 -3 -3 -4 -4 -4 -3 -3 -3 -3 -3 -3 -3 -3 -3 -2 -2 -2 -2 -2 -2
-2 -2 -2 -2 -2 -2 -2 -2 -3 -3 -3 -3 -2 -2 -2 -3 -2 -2 -3 -3 -3 -3 -3 -3 -4 -4 -4 -4 -4 -4 -4 -3 -3 -3 -3 -3 -3 -2 -2 -2 -2 -2 -2
-2 -2 -3 -2 -2 -3 -3 -3 -3 -3 -3 -3 -3 -3 -3 -3 -3 -3 -3 -3 -3 -4 -4 -4 -4 -4 -4 -4 -4 -4 -4 -3 -3 -3 -3 -3 -3 -3 -2 -2 -2 -2 -2
-3 -3 -3 -3 -3 -3 -3 -3 -3 -4 -4 -4 -4 -4 -4 -4 -4 -4 -4 -4 -4 -4 -4 -4 -4 -4 -4 -4 -4 -4 -4 -3 -3 -3 -3 -3 -3 -3 -3 -3 -3 -3 -3
-3 -3 -3 -4 -4 -4 -4 -4 -4 -4 -4 -4 -4 -4 -4 -4 -4 -4 -4 -4 -4 -4 -5 -5 -5 -4 -4 -4 -4 -4 -3 -3 -3 -3 -3 -3 -3 -3 -3 -3 -3 -3 -3
-4 -4 -4 -4 -4 -4 -4 -4 -4 -4 -4 -5 -5 -5 -5 -5 -5 -5 -5 -5 -5 -5 -5 -5 -5 -4 -4 -4 -4 -4 -3 -3 -3 -3 -3 -3 -3 -3 -3 -3 -3 -3 -3
-4 -4 -4 -4 -4 -5 -5 -5 -5 -5 -5 -5 -5 -5 -5 -5 -5 -5 -5 -5 -5 -5 -5 -5 -5 -4 -4 -4 -4 -4 -4 -3 -3 -3 -3 -3 -3 -3 -3 -3 -3 -3 -3
-5 -5 -5 -5 -5 -5 -5 -5 -5 -5 -5 -6 -6 -6 -6 -6 -6 -5 -5 -5 -5 -5 -5 -5 -4 -4 -4 -4 -4 -4 -4 -3 -3 -3 -3 -3 -3 -3 -3 -3 -3 -3 -3
-5 -5 -5 -5 -6 -6 -6 -6 -6 -6 -6 -6 -6 -6 -6 -6 -6 -6 -6 -5 -5 -5 -5 -5 -4 -4 -4 -4 -4 -4 -4 -3 -3 -3 -3 -3 -3 -3 -3 -3 -3 -3 -3
Wind_Speed
4 4 3 3 2 2 2 3 3 3 3 3 4 4 5 5 5 5 6 6 6 7 7 7 7 6 5 5 5 5 6 6 11 11 8 8 9 8 8 8 9 9 10
3 3 3 2 2 2 2 3 2 3 3 3 4 4 5 5 5 5 6 6 7 7 7 7 8 7 7 6 6 6 6 7 9 12 11 9 9 8 8 8 9 9 8
2 2 2 2 2 3 3 2 2 3 3 3 4 4 5 5 5 6 6 6 7 7 7 8 8 7 8 7 7 7 7 8 7 9 11 9 8 7 8 8 8 7 8
2 2 2 2 2 2 2 2 3 3 3 4 4 5 5 5 6 6 6 6 7 7 7 8 8 8 9 8 8 8 7 8 8 9 10 9 8 7 6 7 7 5 6
1 1 1 1 1 2 2 3 3 3 4 3 4 5 5 5 5 5 5 6 7 7 8 8 8 10 11 10 9 7 7 7 8 8 9 9 8 7 6 6 7 6 6
1 1 1 1 1 2 2 2 3 3 3 3 4 5 5 6 8 9 8 6 7 7 8 8 8 9 10 13 14 14 12 10 9 9 9 10 10 8 7 6 6 7 6
1 1 1 0 1 2 2 2 3 3 3 3 4 5 6 6 9 10 10 7 6 7 8 8 8 8 9 8 11 13 12 15 14 11 10 11 10 8 8 8 7 7 7
1 1 1 1 1 2 2 3 3 3 3 4 5 5 5 7 9 10 11 7 6 7 7 7 7 7 8 8 8 8 8 9 11 9 8 9 9 8 7 7 7 6 6
1 1 1 1 2 2 2 3 3 3 3 4 4 5 5 6 9 11 10 6 6 7 8 7 7 7 11 12 8 8 9 8 10 10 10 9 10 9 7 5 4 4 5
2 2 2 2 2 2 3 3 3 3 3 4 4 4 5 5 8 10 10 5 6 7 7 7 9 10 12 12 8 7 8 8 7 7 7 7 6 6 7 4 4 4 4
2 2 3 2 2 2 2 3 3 3 3 4 4 4 4 5 7 9 9 5 5 7 7 6 6 12 13 13 11 7 8 8 6 5 4 4 4 3 3 3 2 2 3
2 2 3 3 3 2 3 3 3 3 3 4 4 5 4 5 6 8 11 10 9 7 7 6 7 12 13 12 9 8 9 7 4 3 3 4 4 4 3 2 1 1 1
2 2 2 3 3 3 2 3 3 3 3 3 4 4 5 5 6 10 11 11 12 7 6 10 11 13 12 8 8 9 7 4 3 3 4 4 3 3 2 2 1 1 3
3 2 2 3 3 3 3 3 2 3 3 3 4 5 5 6 5 5 5 7 9 8 7 9 11 10 7 7 7 6 4 3 3 3 3 3 3 2 2 2 1 1 2
3 3 3 2 2 3 3 3 3 2 2 3 3 3 5 6 7 10 8 7 6 6 7 5 4 5 5 5 5 4 4 4 3 3 3 3 3 2 2 2 1 1 1
3 3 3 3 3 3 3 4 5 4 6 6 6 6 5 7 10 11 11 11 11 10 6 4 5 5 5 5 5 5 4 4 3 3 3 3 2 2 2 1 1 1 1
2 3 3 3 3 3 3 3 4 6 6 6 7 8 8 9 10 11 11 10 10 9 4 4 4 5 5 5 5 4 4 4 3 3 3 3 2 2 1 1 1 2 2
3 3 3 2 2 3 3 3 3 4 5 5 7 9 10 10 10 11 10 8 6 6 4 4 5 5 5 5 4 4 4 4 4 3 3 2 2 1 1 1 1 2 3
3 3 3 2 2 2 2 2 3 4 4 5 6 7 10 9 9 9 9 5 5 5 5 5 5 5 5 5 4 4 4 4 4 3 3 2 2 1 1 1 2 4 4
3 4 4 3 2 2 3 3 3 3 4 4 5 5 6 6 5 6 6 5 4 5 5 5 5 5 5 5 5 4 4 4 4 3 2 2 2 1 1 2 3 3 3
3 4 5 3 2 2 3 3 3 3 4 4 4 5 8 5 5 5 5 5 5 5 5 5 5 5 5 4 4 4 4 4 3 3 2 2 2 1 1 2 3 3 4
3 3 3 3 3 3 3 3 3 3 4 4 4 5 9 5 4 4 5 5 5 5 5 5 5 5 5 4 4 4 4 4 3 2 1 1 1 1 1 2 3 3 4
2 3 3 3 3 4 4 3 4 4 4 4 5 5 5 5 5 5 5 5 5 5 5 5 5 5 5 4 4 4 3 3 3 2 1 1 1 1 1 2 3 4 4
3 3 3 3 3 3 3 4 4 4 5 5 5 5 5 5 5 5 5 5 5 5 5 5 5 6 7 6 5 4 3 3 2 1 0 1 1 1 2 2 3 3 4
3 3 3 3 3 3 4 4 4 4 4 5 5 5 5 5 5 5 5 5 5 6 6 6 6 6 7 7 6 5 5 4 3 2 2 1 2 2 2 3 3 4 5
3 3 3 3 3 4 4 4 4 5 5 5 5 5 5 5 5 5 5 5 5 6 6 6 7 7 7 7 6 6 5 4 3 3 3 2 3 3 3 3 4 5 5
Wind_Direction
190 197 204 205 196 194 214 229 235 248 254 259 263 267 268 268 269 269 272 275 275 275 275 274 274 273 271 269 267 264 261 261 275 286 289 294 290 287 289 285 279 276 275
190 198 200 192 186 207 233 233 236 254 260 259 266 269 269 271 269 269 275 280 275 275 276 275 277 279 275 273 270 267 268 265 270 283 290 293 287 284 286 286 286 283 277
182 195 195 194 198 225 238 239 244 256 266 265 269 268 272 271 269 269 273 278 276 273 272 273 276 276 277 275 272 271 271 274 272 279 287 290 290 289 288 288 284 281 281
168 180 198 223 225 235 243 249 248 249 257 265 269 273 275 275 272 274 279 278 276 276 273 271 274 272 272 272 273 268 270 273 275 280 285 290 289 290 286 287 289 285 288
142 173 221 246 250 257 253 251 258 261 262 263 271 275 275 277 278 286 289 289 284 285 282 275 274 275 277 277 278 274 275 278 279 281 284 289 288 290 286 285 287 294 293
142 190 210 238 258 262 268 268 265 268 268 271 275 279 283 287 294 299 301 296 292 289 291 288 282 280 283 285 285 284 282 281 281 278 281 284 286 286 291 287 288 293 295
89 79 40 347 292 296 296 291 277 270 269 277 276 278 283 290 301 302 302 302 295 293 293 294 295 294 295 287 289 292 290 287 283 278 276 277 281 283 284 284 283 287 287
56 41 23 6 335 330 328 309 292 285 280 281 280 280 286 295 305 308 309 305 296 294 292 289 289 293 295 296 294 294 292 292 288 284 278 280 283 284 276 272 276 287 290
43 26 15 5 343 332 320 312 306 300 299 295 293 289 289 298 311 315 316 307 304 303 299 297 297 295 299 303 301 297 298 298 297 290 288 288 290 295 291 285 280 285 292
31 14 13 9 350 325 314 313 316 311 298 301 302 298 297 302 311 316 318 309 307 307 305 301 302 305 306 309 304 298 297 300 303 304 308 313 314 313 309 289 271 269 281
25 21 20 14 355 338 338 335 333 330 323 318 318 315 314 312 314 318 322 319 309 309 308 309 307 310 310 312 311 302 299 307 310 311 314 317 322 327 329 325 310 272 270
37 24 17 8 358 359 356 343 342 338 333 330 330 330 334 334 333 330 328 325 322 313 310 312 315 319 317 317 319 316 317 322 321 323 328 327 329 331 331 341 352 353 287
39 25 12 8 6 5 4 353 348 346 337 334 332 330 332 337 336 332 331 329 329 326 319 321 322 324 325 327 334 331 331 333 334 332 328 324 322 315 312 332 353 38 37
35 20 10 10 7 10 9 360 351 345 341 337 333 330 329 330 328 329 329 328 329 327 323 323 326 331 335 337 336 337 340 336 331 322 320 319 318 324 327 323 328 2 48
23 12 6 9 12 7 6 4 351 338 328 326 322 316 319 321 320 325 328 328 326 323 325 328 338 343 349 347 342 341 345 347 342 334 328 324 324 332 330 329 349 45 87
16 9 6 7 7 5 360 355 358 350 346 343 336 328 326 323 324 329 332 334 334 335 338 345 348 348 345 342 340 339 343 343 336 330 327 325 323 327 330 340 39 88 89
13 4 4 3 1 356 353 349 339 342 347 350 349 347 341 335 337 338 339 343 345 346 354 353 345 341 339 336 337 334 331 330 328 327 326 329 330 330 336 355 78 97 91
13 6 1 356 353 349 345 340 336 334 335 339 342 343 344 343 345 347 347 350 355 358 360 349 340 337 335 333 333 332 328 329 332 334 336 341 346 351 5 36 98 113 103
11 5 1 356 352 347 343 341 340 336 334 333 336 340 343 342 345 351 354 1 352 350 350 346 339 336 333 331 331 330 327 327 331 336 343 347 352 7 24 52 99 106 102
12 3 357 353 351 353 350 344 339 333 331 334 335 333 336 343 352 350 354 353 351 346 344 341 338 336 334 332 330 327 329 333 334 337 342 355 4 18 38 76 98 105 104
7 3 1 359 359 352 345 337 333 330 331 333 332 333 339 343 343 341 344 347 346 342 337 335 334 332 331 330 326 329 333 334 333 331 341 1 21 26 50 86 97 107 111
3 358 356 353 351 348 337 333 335 336 337 336 334 336 339 343 341 340 340 340 339 334 331 330 328 327 326 325 324 325 326 328 329 331 346 4 26 41 62 87 100 108 113
357 354 353 350 346 344 347 346 342 339 336 336 335 336 338 339 339 338 337 336 334 334 333 331 329 328 328 329 325 316 309 307 310 317 334 352 31 72 89 98 111 119 120
351 349 348 344 344 344 341 340 340 337 335 334 334 335 335 334 333 332 334 334 334 334 336 336 330 328 328 331 332 328 319 319 330 340 342 112 102 105 112 108 114 124 127
353 348 343 341 339 336 334 334 334 334 332 331 331 332 332 332 332 332 332 333 334 336 335 336 335 335 334 332 333 337 338 345 3 60 76 103 111 115 118 117 116 117 116
348 346 343 341 339 337 334 331 331 331 330 328 328 328 327 329 331 332 333 336 338 336 333 336 338 339 337 339 344 349 357 15 46 66 80 99 102 107 111 111 115 117 117
Height
1446 1447 1447 1448 1448 1448 1448 1448 1448 1448 1447 1446 1446 1445 1444 1443 1442 1441 1439 1437 1436 1434 1433 1431 1429 1428 1426 1424 1423 1422 1421 1419 1414 1408 1407 1405 1403 1400 1398 1397 1395 1393 1391
1442 1443 1444 1444 1444 1444 1444 1444 1444 1444 1443 1443 1442 1441 1440 1439 1438 1436 1434 1432 1431 1429 1427 1426 1424 1422 1420 1419 1417 1416 1414 1413 1410 1405 1401 1399 1397 1395 1393 1391 1389 1387 1385
1439 1440 1440 1440 1440 1440 1440 1440 1440 1440 1439 1439 1438 1437 1436 1434 1433 1432 1430 1427 1426 1424 1422 1420 1419 1417 1415 1413 1412 1410 1408 1407 1405 1401 1396 1394 1392 1390 1387 1384 1382 1381 1379
1436 1436 1437 1437 1437 1437 1437 1436 1436 1436 1435 1434 1433 1432 1431 1430 1429 1427 1425 1423 1421 1419 1417 1416 1414 1412 1410 1408 1407 1404 1403 1401 1399 1396 1392 1389 1386 1384 1382 1379 1376 1375 1373
1433 1433 1433 1434 1434 1433 1433 1433 1432 1432 1431 1430 1429 1428 1427 1426 1424 1423 1420 1418 1416 1414 1412 1411 1409 1407 1405 1404 1402 1399 1398 1395 1393 1390 1387 1384 1381 1379 1377 1375 1372 1369 1367
1430 1430 1430 1430 1430 1430 1429 1429 1428 1427 1427 1426 1425 1424 1422 1421 1420 1419 1417 1414 1412 1409 1407 1405 1403 1401 1400 1398 1396 1394 1393 1391 1387 1385 1382 1380 1377 1375 1373 1371 1369 1365 1362
1427 1427 1427 1427 1427 1426 1426 1425 1424 1423 1422 1421 1420 1419 1418 1417 1416 1414 1412 1410 1407 1405 1402 1400 1398 1396 1394 1392 1390 1388 1386 1385 1383 1381 1377 1375 1373 1371 1369 1367 1365 1362 1360
1425 1425 1425 1424 1424 1423 1423 1422 1421 1420 1418 1417 1416 1415 1414 1413 1412 1410 1408 1405 1403 1400 1398 1396 1393 1391 1389 1387 1384 1382 1380 1378 1377 1374 1372 1370 1368 1366 1365 1363 1361 1359 1356
1422 1422 1422 1422 1421 1420 1419 1419 1417 1416 1415 1414 1412 1411 1410 1408 1407 1405 1403 1400 1398 1395 1394 1392 1389 1387 1385 1383 1380 1377 1374 1372 1371 1369 1367 1365 1363 1362 1361 1359 1357 1356 1352
1420 1420 1420 1420 1419 1418 1417 1416 1414 1413 1411 1410 1409 1408 1406 1404 1403 1401 1399 1396 1393 1391 1389 1387 1385 1383 1380 1378 1376 1373 1369 1367 1365 1363 1361 1360 1358 1357 1356 1355 1354 1353 1350
1418 1418 1418 1417 1416 1416 1415 1413 1412 1410 1409 1407 1405 1404 1403 1401 1399 1397 1395 1393 1390 1387 1384 1382 1380 1378 1376 1374 1372 1369 1366 1364 1361 1359 1357 1355 1354 1353 1352 1352 1351 1351 1349
1416 1416 1415 1415 1414 1413 1412 1411 1410 1408 1406 1404 1402 1400 1399 1397 1396 1394 1392 1390 1387 1384 1381 1378 1376 1374 1372 1370 1367 1365 1363 1361 1358 1356 1354 1352 1351 1350 1349 1349 1348 1348 1348
1414 1414 1413 1413 1412 1411 1410 1408 1407 1406 1404 1401 1399 1397 1395 1394 1392 1391 1388 1386 1384 1381 1378 1376 1373 1371 1368 1366 1364 1362 1360 1358 1356 1354 1352 1350 1350 1349 1348 1347 1347 1346 1346
1412 1412 1411 1410 1410 1409 1408 1406 1405 1403 1401 1399 1397 1395 1393 1391 1389 1387 1385 1383 1381 1378 1375 1373 1370 1368 1365 1363 1361 1359 1358 1356 1354 1352 1350 1349 1348 1347 1346 1346 1345 1345 1345
1410 1410 1409 1409 1408 1407 1406 1405 1403 1401 1400 1398 1396 1394 1391 1388 1387 1386 1383 1380 1378 1376 1373 1370 1367 1365 1362 1361 1359 1357 1356 1354 1352 1351 1349 1348 1346 1346 1345 1345 1345 1345 1344
1408 1407 1407 1407 1406 1405 1403 1402 1401 1400 1398 1396 1394 1392 1390 1388 1386 1384 1382 1379 1377 1374 1371 1368 1366 1363 1361 1359 1358 1356 1354 1353 1351 1350 1348 1347 1346 1345 1344 1344 1345 1345 1344
1406 1406 1405 1405 1404 1403 1402 1400 1398 1397 1397 1395 1393 1391 1389 1386 1384 1382 1380 1377 1375 1372 1370 1367 1365 1363 1361 1359 1357 1355 1353 1352 1350 1349 1347 1346 1345 1344 1344 1344 1344 1344 1345
1405 1404 1404 1403 1402 1401 1400 1399 1397 1395 1393 1391 1390 1389 1387 1385 1383 1380 1378 1376 1372 1370 1368 1366 1364 1362 1360 1358 1356 1354 1352 1351 1350 1348 1347 1345 1345 1344 1344 1344 1345 1345 1346
1403 1402 1402 1401 1400 1400 1399 1397 1396 1394 1392 1390 1388 1387 1385 1383 1381 1379 1377 1374 1371 1369 1367 1365 1364 1362 1360 1358 1356 1354 1352 1350 1349 1348 1347 1346 1345 1345 1344 1345 1345 1346 1347
1401 1401 1400 1400 1399 1398 1397 1396 1394 1393 1391 1389 1387 1385 1383 1381 1379 1377 1375 1373 1371 1369 1367 1365 1363 1361 1359 1357 1355 1353 1352 1350 1349 1348 1347 1346 1346 1346 1346 1346 1346 1347 1348
1400 1400 1399 1399 1398 1397 1396 1394 1393 1391 1389 1387 1386 1385 1383 1380 1378 1376 1374 1372 1370 1368 1366 1364 1362 1360 1358 1356 1354 1353 1351 1350 1349 1348 1347 1347 1347 1346 1347 1347 1348 1348 1349
1400 1399 1398 1398 1397 1396 1395 1393 1392 1390 1388 1386 1384 1383 1382 1379 1377 1375 1373 1371 1370 1368 1366 1363 1361 1359 1357 1356 1354 1352 1351 1350 1349 1348 1348 1347 1347 1347 1348 1348 1349 1350 1351
1399 1399 1398 1397 1396 1395 1393 1392 1390 1388 1387 1385 1383 1382 1380 1378 1376 1374 1372 1371 1369 1367 1365 1363 1360 1358 1357 1355 1354 1352 1351 1350 1349 1349 1348 1348 1348 1348 1349 1349 1350 1351 1352
1399 1398 1397 1396 1395 1393 1392 1390 1389 1387 1385 1384 1382 1380 1379 1377 1375 1373 1372 1370 1368 1366 1364 1362 1360 1358 1356 1355 1353 1352 1351 1350 1350 1349 1349 1349 1349 1349 1350 1351 1351 1352 1353
1398 1397 1396 1395 1394 1392 1391 1389 1387 1386 1384 1382 1381 1379 1378 1376 1374 1372 1370 1369 1367 1365 1363 1361 1359 1357 1356 1354 1353 1352 1351 1350 1350 1349 1349 1349 1350 1350 1351 1352 1353 1354 1355
1397 1396 1395 1394 1392 1391 1389 1387 1386 1384 1382 1381 1379 1378 1376 1375 1373 1371 1369 1367 1365 1363 1362 1360 1358 1357 1355 1354 1353 1352 1351 1350 1350 1350 1350 1350 1351 1351 1352 1353 1354 1355 1357